EW6492 Weather Reports


time (UTC)temp
C
wind
direction
speed
KPH
gust
KPH
rain 1hr
cm
rain 24hr
cm
rain mn
cm
humidity
%
barometer
mb
20260505073004 17 163 0.0 3.2 0.00 0.00 0.00 66 955.6
20260505071504 17 197 0.0 3.2 0.00 0.00 0.00 66 955.5
20260505070004 17 225 0.0 3.2 0.00 0.00 0.00 67 955.6
20260505064503 17 218 0.0 4.8 0.00 0.00 0.00 68 955.7
20260505063002 17 238 0.0 4.8 0.00 0.00 0.00 68 955.7
20260505061502 17 238 0.0 3.2 0.00 0.00 0.00 68 955.6
20260505060100 17 238 0.0 3.2 0.00 0.00 0.00 68 955.5
20260505054557 17 198 0.0 4.8 0.00 0.00 0.00 66 955.3
20260505053113 18 159 0.0 3.2 0.00 0.00 0.00 65 955.2
20260505051550 18 165 0.0 4.8 0.00 0.00 0.00 64 955.3
20260505041545 20 265 0.0 4.8 0.00 0.00 0.00 62 955.7
20260505040042 19 259 0.0 11.3 0.00 0.00 0.00 63 955.8
20260505034550 19 207 0.0 6.4 0.00 0.00 0.00 63 955.7
20260505033050 19 235 0.0 4.8 0.00 0.00 0.00 63 955.6
20260505031542 19 209 0.0 4.8 0.00 0.00 0.00 64 955.7
20260505030038 20 244 0.0 3.2 0.00 0.00 0.00 63 955.5
20260505024537 20 246 0.0 4.8 0.00 0.00 0.00 63 955.3
20260505023038 20 246 0.0 4.8 0.00 0.00 0.00 62 955.2
20260505021535 20 234 0.0 1.6 0.00 0.00 0.00 62 955.0
20260505020033 20 234 0.0 1.6 0.00 0.00 0.00 61 954.8
20260505014531 20 229 0.0 4.8 0.00 0.00 0.00 60 954.7
20260505013030 21 236 0.0 4.8 0.00 0.00 0.00 59 954.6
20260505011546 21 240 0.0 3.2 0.00 0.00 0.00 58 954.5
20260505010026 21 230 0.0 4.8 0.00 0.00 0.00 57 954.5
20260505004524 22 155 0.0 4.8 0.00 0.00 0.00 55 954.3
20260505003020 22 251 0.0 3.2 0.00 0.00 0.00 53 954.5
20260505001519 22 267 0.0 4.8 0.00 0.00 0.00 51 954.6
20260505000019 23 267 0.0 4.8 0.00 0.00 0.00 50 954.7
20260504234517 23 250 1.6 11.3 0.00 0.00 0.00 47 954.9
20260504233015 23 242 1.6 11.3 0.00 0.00 0.00 47 954.9
20260504231515 24 167 1.6 11.3 0.00 0.00 0.00 45 955.1
20260504230013 24 257 6.4 24.1 0.00 0.00 0.00 45 955.2
20260504224514 25 250 0.0 12.9 0.00 0.00 0.00 45 955.3
20260504223011 25 248 3.2 20.9 0.00 0.00 0.00 45 955.3
20260504221510 25 266 6.4 12.9 0.00 0.00 0.00 47 955.1
20260504220008 24 218 0.0 1.6 0.00 0.00 0.00 51 955.5
20260504214508 24 217 0.0 8.0 0.00 0.00 0.00 50 955.5
20260504213004 24 249 0.0 11.3 0.00 0.00 0.00 50 955.8
20260504211503 25 222 1.6 9.7 0.00 0.00 0.00 48 956.0
20260504210003 25 244 0.0 16.1 0.00 0.00 0.00 46 956.1
20260504204617 26 312 0.0 4.8 0.00 0.00 0.00 49 956.3
20260504203156 25 263 1.6 9.7 0.00 0.00 0.00 49 956.5
20260504201551 24 224 3.2 12.9 0.00 0.00 0.00 48 956.7
20260504200049 24 355 0.0 12.9 0.00 0.00 0.00 51 957.0
20260504194550 24 248 1.6 17.7 0.00 0.00 0.00 52 957.4
20260504193043 24 239 3.2 12.9 0.00 0.00 0.00 52 957.6
20260504191535 23 291 3.2 11.3 0.00 0.00 0.00 55 957.8
20260504180021 21 235 1.6 11.3 0.00 0.00 0.00 59 957.8
20260504174521 21 113 0.0 12.9 0.00 0.00 0.00 58 957.9
20260504173021 21 137 1.6 12.9 0.00 0.00 0.00 60 957.8
20260504171525 21 32 1.6 12.9 0.00 0.00 0.00 58 957.8
20260504081508 10 227 0.0 1.6 0.00 0.00 0.00 70 960.5